| time (UTC) | temp F | wind direction | speed knots | gust knots | rain 1hr in | rain 24hr in | rain mn in | humidity % | barometer mb |
| 20260508022812 | 60 | 30 | 0.0 | 0.0 | 0.00 | 0.00 | 0.00 | 90 | 1017.1 |
| 20260508021804 | 60 | 30 | 0.0 | 0.0 | 0.00 | 0.00 | 0.00 | 90 | 1017.1 |
| 20260508020804 | 60 | 30 | 0.0 | 0.0 | 0.00 | 0.00 | 0.00 | 90 | 1017.2 |
| 20260508015804 | 60 | 30 | 0.0 | 0.0 | 0.00 | 0.00 | 0.00 | 91 | 1017.2 |
| 20260508014804 | 60 | 30 | 0.0 | 0.0 | 0.00 | 0.00 | 0.00 | 90 | 1017.3 |
| 20260508013804 | 60 | 30 | 0.0 | 0.0 | 0.00 | 0.00 | 0.00 | 90 | 1017.5 |
| 20260508012804 | 60 | 30 | 0.0 | 0.9 | 0.00 | 0.00 | 0.00 | 89 | 1017.5 |
| 20260508010804 | 60 | 30 | 0.0 | 0.0 | 0.00 | 0.00 | 0.00 | 88 | 1017.7 |
| 20260508005804 | 60 | 30 | 0.0 | 0.0 | 0.00 | 0.00 | 0.00 | 89 | 1017.7 |
| 20260508004804 | 60 | 30 | 0.0 | 1.7 | 0.00 | 0.00 | 0.00 | 89 | 1017.8 |
| 20260508003804 | 60 | 30 | 0.0 | 0.0 | 0.00 | 0.00 | 0.00 | 89 | 1017.8 |
| 20260508001804 | 60 | 30 | 0.0 | 0.9 | 0.00 | 0.00 | 0.00 | 88 | 1017.8 |
| 20260508000804 | 60 | 30 | 0.0 | 0.0 | 0.00 | 0.00 | 0.00 | 89 | 1017.7 |
| 20260507234804 | 61 | 30 | 0.0 | 0.0 | 0.00 | 0.00 | 0.00 | 89 | 1017.9 |
| 20260507233804 | 61 | 30 | 0.0 | 0.0 | 0.00 | 0.00 | 0.00 | 89 | 1017.9 |
| 20260507232804 | 61 | 30 | 0.0 | 0.0 | 0.00 | 0.00 | 0.00 | 89 | 1018.0 |
| 20260507231804 | 61 | 30 | 0.0 | 0.0 | 0.00 | 0.00 | 0.00 | 90 | 1018.2 |
| 20260507230804 | 61 | 30 | 0.0 | 0.0 | 0.00 | 0.00 | 0.00 | 90 | 1018.2 |
| 20260507225804 | 61 | 30 | 0.0 | 0.9 | 0.00 | 0.00 | 0.00 | 89 | 1018.4 |
| 20260507224804 | 61 | 30 | 0.0 | 0.9 | 0.00 | 0.00 | 0.00 | 90 | 1018.6 |
| 20260507223804 | 61 | 30 | 0.0 | 0.9 | 0.00 | 0.00 | 0.00 | 90 | 1018.6 |
| 20260507222804 | 61 | 30 | 0.0 | 0.0 | 0.00 | 0.00 | 0.00 | 90 | 1018.5 |
| 20260507221804 | 61 | 30 | 0.0 | 0.0 | 0.00 | 0.00 | 0.00 | 89 | 1018.4 |
| 20260507214804 | 61 | 30 | 0.0 | 0.0 | 0.00 | 0.00 | 0.00 | 89 | 1018.5 |
| 20260507213804 | 61 | 30 | 0.0 | 0.9 | 0.00 | 0.00 | 0.00 | 88 | 1018.4 |
| 20260507212804 | 61 | 30 | 0.0 | 1.7 | 0.00 | 0.00 | 0.00 | 88 | 1018.4 |
| 20260507211804 | 62 | 30 | 0.0 | 0.9 | 0.00 | 0.00 | 0.00 | 88 | 1018.3 |
| 20260507204805 | 61 | 30 | 0.0 | 1.7 | 0.00 | 0.00 | 0.00 | 89 | 1018.6 |
| 20260507203804 | 61 | 30 | 0.0 | 4.3 | 0.00 | 0.00 | 0.00 | 90 | 1018.5 |
| 20260507202804 | 61 | 204 | 1.7 | 2.6 | 0.00 | 0.00 | 0.00 | 91 | 1018.5 |
| 20260507201804 | 61 | 205 | 0.0 | 0.0 | 0.00 | 0.00 | 0.00 | 92 | 1018.5 |
| 20260507200804 | 61 | 205 | 0.0 | 0.0 | 0.00 | 0.00 | 0.00 | 92 | 1018.6 |
| 20260507195804 | 61 | 205 | 0.0 | 1.7 | 0.00 | 0.00 | 0.00 | 92 | 1018.5 |
| 20260507194804 | 61 | 204 | 0.0 | 1.7 | 0.00 | 0.00 | 0.00 | 91 | 1018.5 |
| 20260507192805 | 61 | 204 | 0.0 | 0.0 | 0.00 | 0.00 | 0.00 | 92 | 1018.4 |
| 20260507191804 | 62 | 204 | 0.0 | 0.0 | 0.00 | 0.00 | 0.00 | 92 | 1018.4 |
| 20260507190804 | 62 | 204 | 0.0 | 0.9 | 0.00 | 0.00 | 0.00 | 91 | 1018.5 |
| 20260507185804 | 62 | 204 | 0.0 | 1.7 | 0.00 | 0.00 | 0.00 | 90 | 1018.4 |
| 20260507183805 | 63 | 204 | 0.0 | 1.7 | 0.00 | 0.00 | 0.00 | 87 | 1018.2 |
| 20260507182804 | 63 | 204 | 0.0 | 0.9 | 0.00 | 0.00 | 0.00 | 86 | 1018.2 |
| 20260507181804 | 64 | 204 | 0.0 | 1.7 | 0.00 | 0.00 | 0.00 | 86 | 1018.0 |
| 20260507180804 | 64 | 204 | 0.0 | 0.0 | 0.00 | 0.00 | 0.00 | 86 | 1017.9 |
| 20260507174804 | 64 | 204 | 0.0 | 0.0 | 0.00 | 0.00 | 0.00 | 86 | 1017.6 |
| 20260507173804 | 64 | 204 | 0.0 | 2.6 | 0.00 | 0.00 | 0.00 | 86 | 1017.6 |
| 20260507172821 | 64 | 204 | 1.7 | 2.6 | 0.00 | 0.00 | 0.00 | 86 | 1017.6 |
| 20260507171804 | 64 | 204 | 0.0 | 1.7 | 0.00 | 0.00 | 0.00 | 85 | 1017.7 |
| 20260507170804 | 64 | 204 | 0.0 | 0.9 | 0.00 | 0.00 | 0.00 | 85 | 1017.6 |
| 20260507165805 | 65 | 204 | 0.9 | 2.6 | 0.00 | 0.00 | 0.00 | 85 | 1017.6 |
| 20260507163804 | 64 | 204 | 0.0 | 0.0 | 0.00 | 0.00 | 0.00 | 86 | 1017.6 |
| 20260507162804 | 64 | 204 | 0.0 | 2.6 | 0.00 | 0.00 | 0.00 | 85 | 1017.6 |
| 20260507160805 | 65 | 204 | 0.0 | 0.9 | 0.00 | 0.00 | 0.00 | 85 | 1017.6 |
| 20260507155804 | 64 | 204 | 0.0 | 1.7 | 0.00 | 0.00 | 0.00 | 85 | 1017.6 |
| 20260507154804 | 64 | 204 | 0.0 | 1.7 | 0.00 | 0.00 | 0.00 | 86 | 1017.6 |
| 20260507153804 | 64 | 204 | 0.9 | 1.7 | 0.00 | 0.00 | 0.00 | 85 | 1017.6 |
| 20260507152804 | 64 | 204 | 0.0 | 2.6 | 0.00 | 0.00 | 0.00 | 86 | 1017.5 |
| 20260507151805 | 63 | 205 | 0.9 | 1.7 | 0.00 | 0.00 | 0.00 | 87 | 1017.4 |
| 20260507150805 | 63 | 205 | 0.0 | 6.1 | 0.00 | 0.00 | 0.00 | 87 | 1017.5 |
| 20260507145805 | 63 | 166 | 0.9 | 4.3 | 0.00 | 0.00 | 0.00 | 87 | 1017.6 |
| 20260507144805 | 64 | 166 | 0.9 | 2.6 | 0.00 | 0.00 | 0.00 | 85 | 1017.7 |
| 20260507143804 | 64 | 166 | 0.9 | 2.6 | 0.00 | 0.00 | 0.00 | 85 | 1017.7 |
| 20260507142805 | 64 | 166 | 0.9 | 2.6 | 0.00 | 0.00 | 0.00 | 85 | 1017.7 |
| 20260507141805 | 64 | 167 | 0.9 | 2.6 | 0.00 | 0.00 | 0.00 | 86 | 1017.8 |
| 20260507140805 | 63 | 167 | 0.0 | 2.6 | 0.00 | 0.00 | 0.00 | 87 | 1018.0 |
| 20260507135805 | 63 | 167 | 0.9 | 4.3 | 0.00 | 0.00 | 0.00 | 85 | 1018.1 |
| 20260507134804 | 64 | 167 | 0.0 | 4.3 | 0.00 | 0.00 | 0.00 | 84 | 1018.2 |
| 20260507133805 | 65 | 167 | 0.9 | 2.6 | 0.00 | 0.00 | 0.00 | 83 | 1018.2 |
| 20260507132805 | 65 | 167 | 2.6 | 4.3 | 0.00 | 0.00 | 0.00 | 82 | 1018.3 |
| 20260507131804 | 65 | 167 | 1.7 | 4.3 | 0.00 | 0.00 | 0.00 | 82 | 1018.5 |
| 20260507130804 | 65 | 167 | 1.7 | 2.6 | 0.00 | 0.00 | 0.00 | 82 | 1018.7 |
| 20260507124804 | 64 | 167 | 0.9 | 4.3 | 0.00 | 0.00 | 0.00 | 83 | 1019.0 |
| 20260507123805 | 65 | 180 | 0.9 | 4.3 | 0.00 | 0.00 | 0.00 | 82 | 1018.9 |
| 20260507121805 | 65 | 244 | 2.6 | 5.2 | 0.00 | 0.00 | 0.00 | 78 | 1019.1 |
| 20260507115805 | 66 | 245 | 2.6 | 5.2 | 0.00 | 0.00 | 0.00 | 74 | 1019.1 |
| 20260507114804 | 67 | 245 | 1.7 | 5.2 | 0.00 | 0.00 | 0.00 | 75 | 1019.1 |
| 20260507112805 | 67 | 216 | 2.6 | 4.3 | 0.00 | 0.00 | 0.00 | 73 | 1019.1 |
| 20260507111805 | 66 | 217 | 3.5 | 7.0 | 0.00 | 0.00 | 0.00 | 73 | 1019.1 |
| 20260507105805 | 66 | 232 | 5.2 | 7.0 | 0.00 | 0.00 | 0.00 | 73 | 1019.0 |
| 20260507104805 | 66 | 228 | 4.3 | 6.1 | 0.00 | 0.00 | 0.00 | 72 | 1019.0 |
| 20260507103805 | 66 | 202 | 0.9 | 5.2 | 0.00 | 0.00 | 0.00 | 72 | 1018.9 |
| 20260507102804 | 67 | 228 | 1.7 | 6.1 | 0.00 | 0.00 | 0.00 | 70 | 1018.9 |
| 20260507101804 | 68 | 196 | 1.7 | 7.0 | 0.00 | 0.00 | 0.00 | 67 | 1018.9 |
| 20260507095805 | 67 | 204 | 0.9 | 5.2 | 0.00 | 0.00 | 0.00 | 63 | 1018.8 |
| 20260507094804 | 68 | 185 | 1.7 | 5.2 | 0.00 | 0.00 | 0.00 | 68 | 1018.7 |
| 20260507093804 | 67 | 207 | 0.9 | 5.2 | 0.00 | 0.00 | 0.00 | 70 | 1018.7 |
| 20260507092805 | 67 | 212 | 2.6 | 5.2 | 0.00 | 0.00 | 0.00 | 69 | 1018.7 |
| 20260507091805 | 67 | 152 | 1.7 | 5.2 | 0.00 | 0.00 | 0.00 | 72 | 1018.6 |
| 20260507090804 | 66 | 154 | 0.9 | 4.3 | 0.00 | 0.00 | 0.00 | 75 | 1018.7 |
| 20260507085804 | 65 | 143 | 1.7 | 4.3 | 0.00 | 0.00 | 0.00 | 76 | 1018.6 |
| 20260507084804 | 65 | 143 | 2.6 | 5.2 | 0.00 | 0.00 | 0.00 | 77 | 1018.6 |
| 20260507083805 | 66 | 154 | 2.6 | 5.2 | 0.00 | 0.00 | 0.00 | 74 | 1018.6 |
| 20260507082804 | 65 | 142 | 1.7 | 5.2 | 0.00 | 0.00 | 0.00 | 76 | 1018.5 |
| 20260507081805 | 64 | 214 | 1.7 | 4.3 | 0.00 | 0.00 | 0.00 | 77 | 1018.5 |
| 20260507080804 | 64 | 215 | 0.0 | 4.3 | 0.00 | 0.00 | 0.00 | 78 | 1018.6 |
| 20260507075804 | 64 | 215 | 0.0 | 2.6 | 0.00 | 0.00 | 0.00 | 78 | 1018.6 |
| 20260507073805 | 62 | 215 | 0.0 | 5.2 | 0.00 | 0.00 | 0.00 | 82 | 1018.6 |
| 20260507071805 | 63 | 217 | 2.6 | 4.3 | 0.00 | 0.00 | 0.00 | 79 | 1018.5 |
| 20260507070805 | 62 | 151 | 2.6 | 5.2 | 0.00 | 0.00 | 0.00 | 80 | 1018.4 |
| 20260507065804 | 63 | 167 | 1.7 | 5.2 | 0.00 | 0.00 | 0.00 | 80 | 1018.4 |
| 20260507064804 | 62 | 153 | 0.9 | 4.3 | 0.00 | 0.00 | 0.00 | 80 | 1018.4 |
| 20260507062804 | 63 | 184 | 0.9 | 4.3 | 0.00 | 0.00 | 0.00 | 74 | 1018.4 |
| 20260507061805 | 62 | 250 | 0.9 | 4.3 | 0.00 | 0.00 | 0.00 | 71 | 1018.2 |
| 20260507060804 | 63 | 280 | 0.0 | 2.6 | 0.00 | 0.00 | 0.00 | 69 | 1018.3 |
| 20260507055804 | 61 | 280 | 0.0 | 1.7 | 0.00 | 0.00 | 0.00 | 70 | 1018.2 |
| 20260507054804 | 60 | 281 | 0.9 | 2.6 | 0.00 | 0.00 | 0.00 | 71 | 1018.4 |
| 20260507052805 | 60 | 281 | 0.0 | 0.9 | 0.00 | 0.00 | 0.00 | 73 | 1018.3 |
| 20260507050805 | 60 | 281 | 0.0 | 2.6 | 0.00 | 0.00 | 0.00 | 74 | 1018.2 |
| 20260507044805 | 60 | 282 | 0.0 | 0.9 | 0.00 | 0.00 | 0.00 | 74 | 1018.0 |
| 20260507043804 | 60 | 282 | 0.0 | 0.0 | 0.00 | 0.00 | 0.00 | 73 | 1017.9 |
| 20260507041804 | 60 | 282 | 0.0 | 0.9 | 0.00 | 0.00 | 0.00 | 73 | 1017.8 |
| 20260507040804 | 59 | 282 | 0.0 | 0.0 | 0.00 | 0.00 | 0.00 | 74 | 1017.7 |
| 20260507035804 | 58 | 282 | 0.0 | 2.6 | 0.00 | 0.00 | 0.00 | 77 | 1017.5 |
| 20260507034804 | 57 | 282 | 0.0 | 2.6 | 0.00 | 0.00 | 0.00 | 78 | 1017.4 |
| 20260507033804 | 57 | 215 | 0.0 | 0.9 | 0.00 | 0.00 | 0.00 | 78 | 1017.4 |
| 20260507032804 | 57 | 215 | 0.0 | 0.0 | 0.00 | 0.00 | 0.00 | 78 | 1017.3 |
| 20260507031805 | 57 | 215 | 0.0 | 0.0 | 0.00 | 0.00 | 0.00 | 79 | 1017.2 |
| 20260507030804 | 57 | 215 | 0.0 | 0.9 | 0.00 | 0.00 | 0.00 | 79 | 1017.1 |
| 20260507025804 | 57 | 215 | 0.0 | 0.9 | 0.00 | 0.00 | 0.00 | 79 | 1017.1 |
| 20260507023804 | 58 | 215 | 0.0 | 0.9 | 0.00 | 0.00 | 0.00 | 78 | 1016.8 |